Location: Goudex
(43.3760°N, 0.9543°E)
Time: 14:33:38
(UTC+00:00)

Meteor PRIRODA - Pass Details

Date: 20 November 2019
Orbit: 490 x 512 km, 97.5° (Epoch: 04 December)

Event Time Altitude Azimuth Distance (km) Brightness Sun altitude
Rises 05:34:34 0° 1° (N) 2,596 7.1 -14.6°
Reaches altitude 10° 05:36:52 10° 349° (N) 1,704 6.1 -14.2°
Maximum altitude 05:39:59 27° 291° (WNW) 980 4.5 -13.6°
Drops below altitude 10° 05:43:05 10° 232° (SW) 1,684 5.9 -13.1°
Sets 05:45:20 0° 220° (SW) 2,559 7.0 -12.7°
